Hourly Data Report for March 29, 2012

BAGOTVILLE A
QUEBEC

48°20'00.000" N
71°00'00.000" W
159.10 m
7060400
71727
YBG

Download Data

Hourly Data (March 2012)
Hourly Data Report for March 29, 2012
TIME
LST
Temp Definition
°C
Dew Point Definition
°C
Rel Hum Definition
%
Precip. Amount Definition
mm

Wind Dir Definition
10's deg

Wind Spd Definition
km/h
Visibility Definition
km
Stn Press Definition
kPa
Hmdx Definition


Wind Chill Definition


Weather Definition


00:00 -3.2 -6.6 77   10 15 3.2 98.80   -8 Snow Showers
01:00 -3.6 -5.8 85   11 15 8.0 98.82   -9 Snow Showers
02:00 -3.8 -5.5 88   10 9 8.0 98.80   -8 Snow Showers
03:00 -4.0 -5.1 92   10 7 9.7 98.78   -7 Snow Showers
04:00 -3.8 -5.5 88   5 6 9.7 98.85   -6 Snow Showers
05:00 -3.8 -4.9 92   5 6 9.7 98.93   -6 Snow Showers
06:00 -3.8 -4.9 92   34 4 8.0 99.00   -5 Snow Showers
07:00 -3.9 -5.3 90   29 9 8.0 99.08   -8 Snow
08:00 -3.3 -4.9 89   28 9 4.8 99.09   -7 Snow
09:00 -2.7 -4.5 87   28 9 6.4 99.11   -6 Snow
10:00 -1.6 -4.0 84   28 9 12.9 99.10   -5 Snow
11:00 0.0 -2.9 81   28 13 19.3 99.08   -4 Snow
12:00 1.0 -2.4 78   29 19 19.3 99.06     Snow
13:00 0.7 -4.0 71   28 20 24.1 99.02     Snow
14:00 0.2 -2.9 80   27 22 24.1 99.01     Snow
15:00 0.0 -4.0 74   29 22 8.0 99.00   -6 Snow
16:00 -0.2 -3.4 79   29 26 4.8 99.01   -6 Snow
17:00 -0.2 -3.4 79   29 26 4.8 99.01   -6 Snow
18:00 0.0 -4.0 74   29 17 24.1 99.01   -5 Mostly Cloudy
19:00 -0.4 -4.6 73   28 17 24.1 99.04   -5 Mostly Cloudy
20:00 -0.8 -3.9 79   28 22 24.1 99.06   -7 Snow Showers
21:00 -0.9 -3.1 85   31 19 9.7 99.07   -6 Snow Showers
22:00 -1.0 -4.7 76   31 30 24.1 99.08   -8 Snow Showers
23:00 -1.6 -5.8 73   31 32 24.1 99.12   -9 Snow Showers

Notes on Data Quality.

Legend

  • E = Estimated
  • M = Missing
  • NA = Not Available*
  • [empty] = Indicates an unobserved value
Date modified: